Weather reports worldwide

Advertisment
Loch Glascarnoch, United Kingdom (3031): temperature & dewpoint: 13.02.2018 15:00:00 - 19.02.2018 15:00:00 (GMT)Loch Glascarnoch, United Kingdom (3031): temperature -20cm & temperature -100cm: 13.02.2018 15:00:00 - 19.02.2018 15:00:00 (GMT)Loch Glascarnoch, United Kingdom (3031): wind speed & gusts: 13.02.2018 15:00:00 - 19.02.2018 15:00:00 (GMT)Loch Glascarnoch, United Kingdom (3031): wind direction: 13.02.2018 15:00:00 - 19.02.2018 15:00:00 (GMT)Loch Glascarnoch, United Kingdom (3031): reduced air pressure: 13.02.2018 15:00:00 - 19.02.2018 15:00:00 (GMT)Loch Glascarnoch, United Kingdom (3031): visibility: 13.02.2018 15:00:00 - 19.02.2018 15:00:00 (GMT)Loch Glascarnoch, United Kingdom (3031): sunshine duration: 13.02.2018 15:00:00 - 19.02.2018 15:00:00 (GMT)Loch Glascarnoch, United Kingdom (3031): precipitation: 13.02.2018 15:00:00 - 19.02.2018 15:00:00 (GMT)
Date & Time tt [°C] td [°C] tt -20cm [°C] tt -100cm [°C] ff [km/h] ff [kn] fx [km/h] fx [kn] dd ppp [hPa] vv [km] sd [min] rr [mm]
19.02.2018 15:00:00 9,9 5,6 - - 8 4 - - SSW 1015,4 27 54 0,0
19.02.2018 14:00:00 10,1 7,0 - - 8 4 - - W 1015,3 24 30 0,0
19.02.2018 13:00:00 8,9 6,3 - - 8 4 - - WNW 1015,6 23 6 0,0
19.02.2018 12:00:00 8,3 8,1 - - 15 8 - - W 1015,4 20 6 0,0
19.02.2018 11:00:00 4,5 4,5 - - 4 2 - - E 1015,8 7 0 0,0
19.02.2018 10:00:00 4,2 4,2 - - 4 2 - - SE 1015,4 10 0 0,0
19.02.2018 09:00:00 2,9 2,9 1,7 2,5 4 2 - - WSW 1015,2 13 0 0,2
19.02.2018 08:00:00 2,2 2,1 - - 4 2 - - E 1015,0 1,3 0 0,4
19.02.2018 07:00:00 2,1 2,0 - - 2 1 - - E 1014,4 0,6 0 0,0
19.02.2018 06:00:00 2,1 2,0 - - 2 1 - - S 1013,9 1,8 0 0,2
19.02.2018 05:00:00 2,1 1,9 - - 2 1 - - ESE 1013,7 0,8 0 0,2
19.02.2018 04:00:00 1,9 1,7 - - 2 1 - - ESE 1013,4 0,4 0 0,4
19.02.2018 03:00:00 2,1 2,0 - - 2 1 - - SSE 1013,3 1,8 0 0,0
19.02.2018 02:00:00 2,3 2,1 - - 8 4 - - E 1013,1 5 0 0,4
19.02.2018 01:00:00 2,2 1,9 - - 2 1 - - SSE 1013,1 7 0 0,6
19.02.2018 00:00:00 2,7 2,5 - - 9 5 - - NE 1013,0 22 - 0,2
18.02.2018 23:00:00 2,3 2,0 - - 4 2 - - ENE 1013,2 13 0 0,6
18.02.2018 22:00:00 2,7 2,4 - - 5 3 - - ENE 1013,2 40 0 0,4
18.02.2018 21:00:00 2,3 1,8 - - 8 4 - - E 1013,4 14 0 0,6
18.02.2018 20:00:00 2,3 1,6 - - 9 5 - - ESE 1013,8 16 0 0,4
18.02.2018 19:00:00 2,5 1,5 - - 4 2 - - E 1013,9 12 0 0,4
18.02.2018 18:00:00 2,5 1,3 - - 8 4 - - SSE 1014,2 10 0 0,4
18.02.2018 17:00:00 2,8 1,3 - - 8 4 - - ESE 1014,5 27 0 0,2
18.02.2018 16:00:00 3,4 1,1 - - 8 4 - - E 1014,7 45 0 0,0
18.02.2018 15:00:00 3,8 1,5 - - 15 8 - - E 1015,0 45 24 0,0
18.02.2018 14:00:00 4,2 1,5 - - 8 4 - - SE 1015,6 45 0 0,0
18.02.2018 13:00:00 3,7 1,3 - - 9 5 - - E 1016,2 45 18 0,0
18.02.2018 12:00:00 3,7 0,5 - - 8 4 - - ESE 1016,7 35 54 0,0
18.02.2018 11:00:00 3,7 0,9 - - 4 2 - - SSE 1016,6 30 48 0,2
18.02.2018 10:00:00 1,2 0,4 - - 13 7 - - NE 1016,8 50 0 0,0
18.02.2018 09:00:00 1,4 0,9 1,7 2,5 5 3 - - NNE 1017,1 40 0 0,0
18.02.2018 08:00:00 0,9 0,4 - - 4 2 - - ENE 1017,4 45 0 0,0
18.02.2018 07:00:00 0,8 0,6 - - 9 5 - - ENE 1017,5 50 0 0,0
18.02.2018 06:00:00 0,0 -0,5 - - 8 4 - - ENE 1018,1 50 0 0,0
18.02.2018 05:00:00 0,1 -0,2 - - 5 3 - - NE 1017,7 9 0 0,0
18.02.2018 04:00:00 -1,4 -1,8 - - 4 2 - - ENE 1018,0 45 0 0,0
18.02.2018 03:00:00 -1,3 -1,9 - - 4 2 - - SW 1018,1 45 0 0,0
18.02.2018 02:00:00 -0,7 -1,4 - - 2 1 - - NNW 1018,0 40 0 0,0
18.02.2018 01:00:00 0,1 -0,8 - - 2 1 - - WSW 1017,7 45 0 0,0
18.02.2018 00:00:00 0,5 -0,3 - - 9 5 - - ENE 1017,5 40 - 0,0
17.02.2018 23:00:00 0,6 -0,7 - - 4 2 - - E 1017,3 40 0 0,0
17.02.2018 22:00:00 0,8 -0,8 - - 2 1 - - WSW 1017,2 50 0 0,0
17.02.2018 21:00:00 0,9 -0,3 - - 8 4 - - ENE 1016,6 40 0 0,0
17.02.2018 20:00:00 0,3 -1,0 - - 2 1 - - NW 1016,5 45 0 0,0
17.02.2018 19:00:00 1,5 0,0 - - 13 7 - - WNW 1016,0 50 0 0,0
17.02.2018 18:00:00 2,0 0,1 - - 16 9 - - W 1015,5 40 0 0,0
17.02.2018 17:00:00 2,6 0,1 - - 16 9 - - W 1014,5 45 0 0,2
17.02.2018 16:00:00 1,8 0,4 - - 22 12 - - W 1014,3 8 18 0,2
17.02.2018 15:00:00 2,7 1,4 - - 13 7 - - W 1013,8 45 12 0,2
17.02.2018 14:00:00 3,7 0,4 - - 13 7 - - WSW 1013,2 45 42 0,0
17.02.2018 13:00:00 1,9 0,7 - - 13 7 - - W 1013,7 9 6 0,4
17.02.2018 12:00:00 3,6 0,2 - - 11 6 - - SW 1013,0 29 54 0,0
17.02.2018 11:00:00 3,9 0,4 - - 8 4 - - SW 1012,6 30 42 0,0
17.02.2018 10:00:00 2,6 1,1 - - 8 4 - - N 1012,2 50 6 0,0
17.02.2018 09:00:00 1,8 0,6 1,7 2,7 5 3 - - SW 1011,8 19 0 1,0
17.02.2018 08:00:00 2,4 0,6 - - 9 5 - - WSW 1011,3 45 0 0,0
17.02.2018 07:00:00 2,5 0,7 - - 5 3 - - WSW 1011,1 50 0 0,0
17.02.2018 06:00:00 2,8 0,5 - - 26 14 46 25 WSW 1010,8 50 0 0,6
17.02.2018 05:00:00 3,3 0,9 - - 21 11 - - SW 1010,5 6 0 0,0
17.02.2018 04:00:00 3,1 0,8 - - 18 10 - - SW 1010,5 7 0 0,0
17.02.2018 03:00:00 3,3 0,9 - - 11 6 - - SSW 1010,5 35 0 0,0
17.02.2018 02:00:00 3,3 0,8 - - 28 15 59 32 WSW 1010,2 9 0 0,2
17.02.2018 01:00:00 3,6 1,0 - - 35 19 61 33 SW 1009,8 50 0 0,2
17.02.2018 00:00:00 3,9 1,1 - - 39 21 61 33 SW 1010,0 40 - 0,2
16.02.2018 23:00:00 3,8 0,6 - - 28 15 50 27 SW 1009,6 50 0 0,2
16.02.2018 22:00:00 3,2 0,7 - - 18 10 - - S 1009,6 40 0 0,2
16.02.2018 21:00:00 3,6 -0,1 - - 24 13 - - SSE 1010,1 45 0 0,0
16.02.2018 20:00:00 3,4 -0,5 - - 21 11 - - SSE 1010,3 30 0 0,0
16.02.2018 19:00:00 2,9 -0,6 - - 15 8 - - SSE 1010,9 45 0 0,0
16.02.2018 18:00:00 2,3 0,3 - - 15 8 - - SE 1011,7 40 0 0,0
16.02.2018 17:00:00 2,6 0,0 - - 22 12 - - SE 1012,1 40 0 0,0
16.02.2018 16:00:00 2,3 0,6 - - 13 7 - - ESE 1012,6 50 0 0,0
16.02.2018 15:00:00 1,8 0,6 - - 11 6 - - ESE 1013,4 45 0 0,0
16.02.2018 14:00:00 2,3 0,4 - - 18 10 - - SSW 1013,9 8 0 0,4
16.02.2018 13:00:00 2,5 0,4 - - 24 13 - - SW 1013,7 35 6 0,0
16.02.2018 12:00:00 2,7 -0,1 - - 29 16 - - SW 1013,5 40 6 0,0
16.02.2018 11:00:00 2,3 0,0 - - 21 11 - - SW 1013,1 35 18 0,0
16.02.2018 10:00:00 2,4 -0,7 - - 21 11 - - WSW 1012,7 35 24 0,2
16.02.2018 09:00:00 1,9 -1,0 1,7 2,7 26 14 - - WSW 1011,9 30 0 0,0
16.02.2018 08:00:00 0,8 -1,4 - - 15 8 - - SW 1011,2 40 0 0,0
16.02.2018 07:00:00 0,9 -1,1 - - 16 9 - - WSW 1010,7 50 0 0,2
16.02.2018 06:00:00 0,7 -0,5 - - 13 7 - - SW 1010,1 1,0 0 0,0
16.02.2018 05:00:00 1,7 -1,9 - - 24 13 - - WSW 1009,0 35 0 0,2
16.02.2018 04:00:00 1,6 -1,5 - - 26 14 - - WSW 1008,6 1,7 0 0,0
16.02.2018 03:00:00 1,6 -1,5 - - 26 14 46 25 WSW 1007,6 27 0 0,0
16.02.2018 02:00:00 2,0 -1,7 - - 26 14 59 32 WSW 1006,9 3,8 0 0,0
16.02.2018 01:00:00 2,4 -2,4 - - 39 21 59 32 W 1005,8 29 0 0,0
16.02.2018 00:00:00 2,4 -2,0 - - 28 15 - - W 1004,9 26 - 0,0
15.02.2018 23:00:00 2,2 -1,1 - - 24 13 - - WSW 1004,1 30 0 0,0
15.02.2018 22:00:00 2,5 -1,8 - - 34 18 46 25 W 1002,5 28 0 0,0
15.02.2018 21:00:00 3,5 -0,6 - - 34 18 52 28 W 1001,1 15 0 0,2
15.02.2018 20:00:00 1,3 0,0 - - 39 21 67 36 W 1000,5 7 0 0,6
15.02.2018 19:00:00 3,1 -0,2 - - 29 16 55 30 W 998,2 20 0 0,2
15.02.2018 18:00:00 3,5 -0,5 - - 41 22 61 33 W 996,7 16 0 0,2
15.02.2018 17:00:00 3,1 0,2 - - 35 19 54 29 WSW 995,5 14 0 0,2
15.02.2018 16:00:00 2,7 0,1 - - 28 15 55 30 WSW 994,3 30 0 0,4
15.02.2018 15:00:00 2,5 0,1 - - 31 17 72 39 WSW 992,9 14 0 0,4
15.02.2018 14:00:00 2,8 0,7 - - 16 9 55 30 W 991,5 12 12 0,8
15.02.2018 13:00:00 2,4 0,6 - - 29 16 57 31 WSW 990,8 4,5 0 1,6
15.02.2018 12:00:00 2,1 0,1 - - 41 22 67 36 SW 989,6 13 0 2,6
15.02.2018 11:00:00 1,2 -0,1 - - 37 20 70 38 SW 989,1 1,2 0 3,2
15.02.2018 10:00:00 1,7 0,1 - - 39 21 70 38 WSW 988,2 2,1 0 2,4
15.02.2018 09:00:00 2,4 -0,8 1,7 2,7 41 22 61 33 SW 986,8 14 0 1,4
15.02.2018 08:00:00 0,7 0,1 - - 22 12 68 37 SW 987,0 0,8 0 0,4
15.02.2018 07:00:00 0,5 -0,4 - - 28 15 65 35 SW 986,7 0,6 0 0,4
15.02.2018 06:00:00 1,4 -0,9 - - 35 19 61 33 SSW 985,8 30 0 0,8
15.02.2018 05:00:00 1,2 -0,1 - - 37 20 63 34 SW 985,6 9 0 0,6
15.02.2018 04:00:00 1,2 -0,4 - - 28 15 - - SSW 985,1 4,2 0 0,6
15.02.2018 03:00:00 0,9 -0,5 - - 21 11 54 29 S 985,1 1,3 0 0,4
15.02.2018 02:00:00 1,0 -0,5 - - 16 9 - - S 985,8 0,8 0 0,6
15.02.2018 01:00:00 1,7 -0,7 - - 28 15 52 28 SW 985,0 30 0 0,8
15.02.2018 00:00:00 1,1 0,0 - - 29 16 70 38 SW 985,2 2,1 - 1,4
14.02.2018 23:00:00 0,9 0,0 - - 26 14 54 29 SW 985,2 0,8 0 0,8
14.02.2018 22:00:00 0,8 -0,2 - - 39 21 78 42 WSW 985,1 0,7 0 1,0
14.02.2018 21:00:00 3,8 -2,9 - - 26 14 54 29 SW 983,1 18 0 1,0
14.02.2018 20:00:00 3,8 -2,3 - - 24 13 61 33 SW 983,0 20 0 0,8
14.02.2018 19:00:00 3,7 -0,2 - - 26 14 48 26 SW 983,0 20 0 1,0
14.02.2018 18:00:00 2,5 0,2 - - 28 15 57 31 SW 983,1 18 0 1,6
14.02.2018 17:00:00 2,7 0,6 - - 16 9 55 30 S 982,4 25 0 7,6
14.02.2018 16:00:00 2,6 0,5 - - 24 13 - - SSW 982,2 4,4 0 0,0
14.02.2018 15:00:00 2,9 0,7 - - 21 11 - - SE 981,5 40 12 0,0
14.02.2018 14:00:00 2,9 1,1 - - 26 14 - - S 981,8 20 6 0,0
14.02.2018 13:00:00 1,8 -0,2 - - 31 17 50 27 SE 982,4 45 0 0,0
14.02.2018 12:00:00 1,3 -0,4 - - 37 20 57 31 SE 982,7 6 0 0,0
14.02.2018 11:00:00 0,7 0,1 - - 34 18 57 31 SE 984,0 1,3 0 0,0
14.02.2018 10:00:00 1,6 -0,4 - - 42 23 63 34 SE 984,4 12 0 -
14.02.2018 09:00:00 1,9 -0,9 1,7 2,7 42 23 76 41 SE 985,6 30 0 0,0
14.02.2018 08:00:00 1,3 -1,5 - - 42 23 68 37 SE 986,0 17 0 0,0
14.02.2018 07:00:00 0,9 -1,9 - - 42 23 59 32 SE 988,2 19 0 0,0
14.02.2018 06:00:00 0,8 -2,1 - - 41 22 55 30 SE 990,2 7 0 0,0
14.02.2018 05:00:00 0,6 -2,7 - - 35 19 54 29 SE 991,4 30 0 0,0
14.02.2018 04:00:00 -0,2 -2,8 - - 28 15 - - ESE 993,3 35 0 0,0
14.02.2018 03:00:00 0,5 -2,8 - - 24 13 - - SE 994,5 20 0 0,0
14.02.2018 02:00:00 0,9 -2,9 - - 15 8 - - SE 995,5 50 0 0,0
14.02.2018 01:00:00 -0,8 -3,1 - - 16 9 - - ESE 996,5 50 0 0,0
14.02.2018 00:00:00 0,1 -3,0 - - 18 10 - - SE 996,9 27 - 0,0
13.02.2018 23:00:00 0,9 -3,0 - - 15 8 - - S 996,8 45 0 0,0
13.02.2018 22:00:00 1,2 -1,8 - - 22 12 52 28 SSW 996,5 18 0 0,0
13.02.2018 21:00:00 1,0 -0,9 - - 24 13 - - SW 996,5 3,2 0 0,0
13.02.2018 20:00:00 0,1 -1,4 - - 18 10 46 25 SW 996,4 4,0 0 0,0
13.02.2018 19:00:00 0,4 -2,3 - - 24 13 - - WSW 996,2 9 0 0,0
13.02.2018 18:00:00 0,7 -2,3 - - 26 14 - - SW 995,9 27 0 0,0
13.02.2018 17:00:00 0,1 -3,1 - - 26 14 - - SW 995,2 45 0 0,0
13.02.2018 16:00:00 0,3 -2,2 - - 35 19 54 29 SW 994,5 8 24 0,0
13.02.2018 15:00:00 0,4 -2,2 - - 18 10 - - WSW 993,6 40 60 0,0

tt = temperature
td = dewpoint
tt -20cm = temperature -20cm
tt -100cm = temperature -100cm
ff = wind speed
fx = gusts
dd = wind direction
ppp = reduced air pressure
vv = visibility
sd = sunshine duration
rr = precipitation

Next stations